Powrót do katalogu

O3B FM15

AktywnyŁącznośćMEO
NORAD 43231·PAYLOAD·🇱🇺 Luxembourg

Wystrzelony Mar 9, 2018 z Guiana Space Centre

Loading…

Następne Przeloty (najbliższe 24 godziny)

TLE

ŚwieżeSource: CelesTrak SupGP

Epoka: Sep 13, 2026, 18:00 UTC

1 43231C 18024A   26256.75000000  .00000000  00000+0  00000+0 0  2565
2 43231   0.0562 356.6200 0002577 177.0814  16.7283  5.00115951    14

Śledź O3B FM15 w czasie rzeczywistym z AllMySat

Download on the App Store